Location: Ipswich
(52.0579°N, 1.1528°E)
Time: 09:41:56
(UTC+01:00)

ISS - Pass Details

Date: 12 May 2026
Orbit: 414 x 424 km, 51.6° (Epoch: 8 May)

Event Time Altitude Azimuth Distance (km) Brightness Sun altitude
Rises 21:29:18 0° 242° (WSW) 2,346 0.3 -7.0°
Reaches altitude 10° 21:31:25 10° 237° (WSW) 1,486 -0.8 -7.3°
Maximum altitude 21:34:40 51° 160° (SSE) 527 -3.6 -7.7°
Drops below altitude 10° 21:37:55 10° 83° (E) 1,493 -1.3 -8.0°
Sets 21:40:03 0° 79° (E) 2,359 -0.3 -8.2°
